[[{"header":{"parameterUnit":"m.s-1","parameterCategory":1,"la1":30.2991,"la2":30.254,"lo1":-89.0895,"lo2":-89.0444,"dy":0.0017,"dx":0.0017,"nx":28,"ny":28,"refTime":"2024-05-28T21:00:00:Z","depth":0,"parameterNumber":2,"parameterNumberName":"U-component_of_WINDS"},"data":[0,0,0,0,0,0,0,0,0,0,0,0,0,0,0,0,0,0,0,0,0,0,0,0,0,0,0,0,0,0,0,0,0,0,0,0,0,0,0,0,0,0,0,0,0,0,0,0,0,0,0,0,0,0,0,0,0,0,-1.2821,-1.2821,0,-1.2771,-1.2771,-1.277,-1.2743,-1.2743,-1.2743,-1.2743,-1.269,-1.2689,-1.2688,0,0,0,0,0,0,0,0,0,0,0,0,0,-1.2894,-1.2893,-1.2822,-1.2821,-1.282,-1.2771,-1.2771,-1.277,-1.2743,-1.2743,-1.2743,-1.2743,-1.2691,-1.2689,-1.2687,0,0,0,0,0,0,0,0,0,0,0,0,0,-1.2855,-1.2893,-1.2822,-1.2801,-1.2799,-1.2772,-1.2771,-1.277,-1.2743,-1.2743,-1.2743,-1.2743,-1.2691,-1.2689,-1.2687,-1.2677,0,0,-1.2681,-1.268,0,0,0,0,0,0,0,0,-1.2858,-1.2853,-1.2805,-1.2802,-1.28,-1.2763,-1.2777,-1.2739,-1.2743,-1.2764,-1.2743,-1.2743,-1.2715,-1.2711,-1.2701,-1.2674,-1.2672,-1.2681,-1.268,-1.2679,-1.2678,0,0,0,0,0,0,0,-1.286,-1.2855,-1.2802,-1.2804,-1.2801,-1.2794,-1.2789,-1.277,-1.274,-1.2762,-1.276,-1.2755,-1.2713,-1.2703,-1.27,-1.2671,-1.2681,-1.2679,-1.2678,-1.2677,-1.2634,-1.2634,0,0,0,0,0,0,-1.2866,-1.2857,-1.2803,-1.28,-1.2829,-1.2793,-1.2787,-1.2775,-1.2741,-1.2735,-1.2755,-1.2753,-1.2707,-1.2702,-1.2698,-1.2684,-1.2679,-1.2677,-1.2676,-1.2634,-1.2634,-1.2634,0,0,0,0,0,0,-1.2868,-1.2862,-1.2805,-1.2828,-1.282,-1.2792,-1.2779,-1.2774,-1.2764,-1.2735,-1.2729,-1.275,-1.2707,-1.2701,-1.2683,-1.2681,-1.2676,-1.2674,-1.2634,-1.2634,-1.2634,-1.2655,0,0,0,0,0,0,-1.287,-1.2863,-1.2858,-1.2828,-1.2819,-1.2791,-1.2779,-1.2773,-1.2761,-1.2759,-1.2729,-1.2724,-1.2706,-1.2686,-1.2681,-1.2679,-1.2673,-1.2634,-1.2634,-1.2634,-1.2654,-1.2656,-1.2657,0,0,0,0,0,-1.2873,-1.2865,-1.2858,-1.2852,-1.2813,-1.2791,-1.2785,-1.2765,-1.2761,-1.2756,-1.2738,-1.2725,-1.2683,-1.2684,-1.2678,-1.2675,-1.2634,-1.2634,-1.2634,-1.2654,-1.2655,-1.2657,0,0,0,0,0,0,-1.2895,-1.2861,-1.2852,-1.2835,-1.2816,-1.2786,-1.2779,-1.2768,-1.2749,-1.2748,-1.2723,-1.2717,-1.2701,-1.2687,-1.2689,-1.2664,-1.2657,-1.2656,-1.2674,-1.2675,-1.2677,-1.268,-1.2671,0,0,0,0,0,-1.2898,-1.2883,-1.2854,-1.2841,-1.2832,-1.2808,-1.2797,-1.2784,-1.2763,-1.2754,-1.2734,-1.2714,-1.2697,-1.2685,-1.2668,-1.2653,-1.2646,-1.2648,-1.265,-1.2651,-1.265,-1.2642,-1.2642,-1.2635,-1.2635,-1.2635,0,0,-1.2904,-1.2884,-1.2875,-1.2845,-1.2829,-1.2814,-1.2801,-1.2785,-1.2774,-1.2752,-1.2733,-1.2718,-1.2695,-1.2678,-1.267,-1.2666,-1.2651,-1.2651,-1.2652,-1.265,-1.2642,-1.2643,-1.2643,-1.2635,-1.2635,-1.2635,0,0,-1.2907,-1.289,-1.2878,-1.2862,-1.2838,-1.2822,-1.2819,-1.2791,-1.278,-1.2762,-1.2745,-1.2732,-1.2701,-1.2685,-1.2673,-1.2672,-1.266,-1.2667,-1.2674,-1.2666,-1.2667,-1.2667,-1.2667,-1.2667,-1.2667,-1.2667,-1.2667,0,-1.2917,-1.2893,-1.2873,-1.2858,-1.2846,-1.2827,-1.2814,-1.28,-1.2771,-1.2763,-1.2759,-1.2722,-1.2704,-1.2684,-1.2684,-1.2675,-1.2672,-1.267,-1.2669,-1.2669,-1.2669,-1.2668,-1.2668,-1.2668,-1.2668,-1.2668,-1.2667,0,-1.2907,-1.2891,-1.2884,-1.2857,-1.2844,-1.2831,-1.2809,-1.2799,-1.2787,-1.2771,-1.2753,-1.2732,-1.271,-1.2705,-1.2692,-1.2683,-1.2681,-1.2673,-1.2665,-1.2671,-1.267,-1.2669,-1.2669,-1.2669,-1.2669,-1.2668,0,0,-1.292,-1.2884,-1.2882,-1.287,-1.2842,-1.283,-1.2816,-1.2795,-1.2786,-1.2768,-1.2756,-1.2732,-1.2725,-1.2711,-1.2698,-1.2691,-1.2692,-1.2684,-1.2683,-1.2686,-1.268,-1.2686,-1.2686,-1.2684,-1.2684,-1.2684,-1.2682,0,-1.2919,-1.2893,-1.2875,-1.2857,-1.2842,-1.2824,-1.2813,-1.2795,-1.2781,-1.2766,-1.2751,-1.2734,-1.2726,-1.2718,-1.2711,-1.2693,-1.269,-1.2693,-1.2672,-1.2672,-1.2678,-1.2685,-1.2691,-1.269,-1.2682,-1.2682,-1.2682,0,-1.2913,-1.2896,-1.2876,-1.2851,-1.2844,-1.2834,-1.2813,-1.28,-1.278,-1.277,-1.2756,-1.2742,-1.2728,-1.2723,-1.2702,-1.2705,-1.2696,-1.2686,-1.2686,-1.2682,-1.2676,-1.2681,-1.269,-1.2689,-1.2681,-1.2681,-1.2681,0,-1.2925,-1.2896,-1.2881,-1.2871,-1.2842,-1.2835,-1.2823,-1.2803,-1.2791,-1.2774,-1.2767,-1.2748,-1.2737,-1.2723,-1.2705,-1.2703,-1.2687,-1.268,-1.2678,-1.2679,-1.2674,-1.2675,-1.268,-1.267,-1.267,-1.267,-1.267,0,-1.2924,-1.2913,-1.2886,-1.2876,-1.2863,-1.2843,-1.2831,-1.2817,-1.28,-1.2787,-1.2771,-1.276,-1.2737,-1.2723,-1.2709,-1.2695,-1.269,-1.2682,-1.2678,-1.2683,-1.2684,-1.2675,-1.2675,-1.267,-1.267,-1.267,-1.267,0,-1.2935,-1.2916,-1.2898,-1.2872,-1.2866,-1.2857,-1.2835,-1.2825,-1.2811,-1.2796,-1.2791,-1.2769,-1.2752,-1.2733,-1.2709,-1.27,-1.2686,-1.2681,-1.2693,-1.269,-1.2689,-1.269,-1.2689,-1.2688,-1.268,-1.268,-1.268,0,-1.2935,-1.2926,-1.29,-1.289,-1.2878,-1.2864,-1.2852,-1.2833,-1.2822,-1.28,-1.2793,-1.2775,-1.2759,-1.2733,-1.2715,-1.2697,-1.2691,-1.2692,-1.2688,-1.2693,-1.2691,-1.2691,-1.269,-1.2693,-1.2693,-1.2693,-1.2694,0,-1.2938,-1.293,-1.2914,-1.2896,-1.2883,-1.2868,-1.2851,-1.2845,-1.2823,-1.2811,-1.2794,-1.2782,-1.2759,-1.2741,-1.2722,-1.2709,-1.2698,-1.2695,-1.2694,-1.2698,-1.2705,-1.2701,-1.2695,-1.2695,-1.2695,-1.2695,-1.2695,-1.2695,-1.2943,-1.2934,-1.2915,-1.2898,-1.2884,-1.287,-1.286,-1.2845,-1.283,-1.2809,-1.2799,-1.2782,-1.2764,-1.2736,-1.2724,-1.2711,-1.2707,-1.2705,-1.2704,-1.2704,-1.2705,-1.2708,-1.2707,-1.2707,-1.2707,-1.2707,-1.2707,0,-1.2945,-1.2932,-1.2917,-1.2895,-1.2883,-1.2874,-1.2856,-1.2846,-1.2831,-1.2815,-1.28,-1.2781,-1.2764,-1.2745,-1.2727,-1.272,-1.2715,-1.2716,-1.2716,-1.2713,-1.271,-1.2712,-1.2721,-1.2721,-1.2721,-1.2721,-1.2721,-1.2721,-1.2944,-1.2929,-1.2919,-1.2897,-1.2884,-1.2867,-1.2857,-1.2844,-1.2831,-1.281,-1.2797,-1.2785,-1.2767,-1.2748,-1.2733,-1.2728,-1.2722,-1.2725,-1.2718,-1.2715,-1.2714,-1.2712,-1.2715,-1.2724,-1.2724,-1.2723,-1.2723,-1.2723]},{"header":{"parameterUnit":"m.s-1","parameterCategory":1,"la1":30.2991,"la2":30.254,"lo1":-89.0895,"lo2":-89.0444,"dy":0.0017,"dx":0.0017,"nx":28,"ny":28,"refTime":"2024-05-28T21:00:00:Z","depth":0,"parameterNumber":3,"parameterNumberName":"V-component_of_WINDS"},"data":[0,0,0,0,0,0,0,0,0,0,0,0,0,0,0,0,0,0,0,0,0,0,0,0,0,0,0,0,0,0,0,0,0,0,0,0,0,0,0,0,0,0,0,0,0,0,0,0,0,0,0,0,0,0,0,0,0,0,3.4844,3.4843,0,3.4788,3.4788,3.4787,3.4802,3.4803,3.4804,3.4805,3.4744,3.4741,3.4738,0,0,0,0,0,0,0,0,0,0,0,0,0,3.4958,3.4956,3.4844,3.4843,3.4843,3.4788,3.4788,3.4787,3.4802,3.4803,3.4804,3.4806,3.4744,3.4741,3.4738,0,0,0,0,0,0,0,0,0,0,0,0,0,3.4906,3.4956,3.4844,3.4844,3.4843,3.4789,3.4788,3.4787,3.4801,3.4803,3.4805,3.4806,3.4746,3.4742,3.4738,3.4679,0,0,3.4725,3.4724,0,0,0,0,0,0,0,0,3.4909,3.4902,3.4844,3.4844,3.4843,3.4804,3.4805,3.475,3.4801,3.4817,3.4805,3.4807,3.4762,3.4757,3.4742,3.4676,3.4673,3.4725,3.4723,3.4721,3.472,0,0,0,0,0,0,0,3.4913,3.4904,3.4822,3.4843,3.4842,3.4845,3.4839,3.4795,3.478,3.4816,3.4817,3.481,3.4762,3.4746,3.4741,3.4672,3.4725,3.4721,3.4719,3.4717,3.4555,3.4554,0,0,0,0,0,0,3.4918,3.4907,3.4824,3.482,3.4881,3.4841,3.4835,3.4815,3.4781,3.4778,3.4809,3.4811,3.4752,3.4746,3.4739,3.4668,3.4721,3.4717,3.4715,3.4557,3.4555,3.4553,0,0,0,0,0,0,3.492,3.491,3.4826,3.4864,3.4854,3.4838,3.4814,3.4813,3.4797,3.4776,3.4773,3.4796,3.4753,3.4745,3.4694,3.4666,3.4715,3.4712,3.456,3.4557,3.4554,3.4526,0,0,0,0,0,0,3.4923,3.4911,3.4889,3.4864,3.4851,3.4783,3.4813,3.481,3.4791,3.4793,3.4763,3.476,3.4754,3.47,3.469,3.4662,3.4708,3.4562,3.4558,3.4555,3.453,3.4523,3.4517,0,0,0,0,0,3.4927,3.4883,3.4888,3.4878,3.4825,3.4781,3.4774,3.477,3.4788,3.4766,3.4752,3.4761,3.4671,3.4695,3.4684,3.4654,3.4564,3.4559,3.4555,3.4532,3.4524,3.4517,0,0,0,0,0,0,3.4904,3.4879,3.4885,3.4831,3.4808,3.4784,3.4756,3.4762,3.4732,3.4735,3.473,3.4723,3.4672,3.4658,3.4684,3.4595,3.462,3.4613,3.4606,3.4598,3.4592,3.4597,3.4705,0,0,0,0,0,3.4893,3.4861,3.4841,3.4795,3.4784,3.4772,3.4753,3.4752,3.4727,3.4717,3.47,3.4675,3.4641,3.4619,3.4587,3.4528,3.4521,3.4502,3.4495,3.449,3.4485,3.4452,3.4444,3.4539,3.4539,3.4539,0,0,3.4868,3.4851,3.4831,3.479,3.4772,3.4739,3.4763,3.4726,3.4701,3.4711,3.4663,3.465,3.4621,3.4566,3.4541,3.4553,3.4457,3.4485,3.4481,3.4478,3.4447,3.4438,3.443,3.4536,3.4537,3.4537,0,0,3.4807,3.4792,3.4752,3.4734,3.4708,3.47,3.4691,3.4666,3.4658,3.461,3.4617,3.4586,3.4528,3.4507,3.4489,3.4422,3.4428,3.4411,3.4378,3.4347,3.434,3.4333,3.4309,3.43,3.4405,3.4405,3.4405,0,3.478,3.4732,3.473,3.4693,3.4675,3.4684,3.4643,3.4625,3.4589,3.4575,3.4589,3.4518,3.4499,3.444,3.4423,3.4408,3.4397,3.4414,3.4341,3.4334,3.4328,3.4305,3.4296,3.4404,3.4404,3.4404,3.4404,0,3.47,3.4666,3.4636,3.4603,3.4581,3.4542,3.4534,3.4511,3.4512,3.4503,3.4454,3.4432,3.4396,3.4382,3.4382,3.4322,3.4331,3.4343,3.4367,3.4317,3.4295,3.4286,3.4401,3.4402,3.4402,3.4403,0,0,3.4622,3.4589,3.4579,3.4564,3.4536,3.4509,3.447,3.4436,3.4417,3.4392,3.4359,3.431,3.4321,3.4301,3.4299,3.4271,3.4219,3.4287,3.4286,3.4275,3.4152,3.4143,3.4133,3.4223,3.4222,3.422,3.4155,0,3.4558,3.4492,3.449,3.4429,3.4397,3.4406,3.4372,3.4351,3.4341,3.4311,3.43,3.4266,3.4284,3.4271,3.4245,3.4231,3.4194,3.4236,3.4192,3.419,3.4198,3.4122,3.4112,3.4051,3.4146,3.4145,3.4144,0,3.4476,3.445,3.4386,3.4363,3.435,3.432,3.4289,3.4261,3.4237,3.4231,3.4209,3.4211,3.417,3.4197,3.414,3.4169,3.415,3.4141,3.4138,3.4134,3.4164,3.4115,3.4032,3.4023,3.413,3.4131,3.4132,0,3.4425,3.4374,3.433,3.4317,3.4289,3.4268,3.4255,3.4232,3.4212,3.4185,3.4172,3.4139,3.4121,3.4095,3.4088,3.4108,3.4032,3.4057,3.4026,3.4026,3.4009,3.401,3.3921,3.3997,3.3997,3.3997,3.3998,0,3.4355,3.4316,3.4307,3.428,3.4236,3.4233,3.4189,3.4177,3.4157,3.4127,3.4132,3.4103,3.4095,3.4064,3.4058,3.4012,3.4004,3.3998,3.3997,3.3997,3.3998,3.3985,3.3989,3.3995,3.3996,3.3996,3.3996,0,3.4291,3.4284,3.4236,3.4214,3.4208,3.4176,3.4157,3.413,3.4121,3.4083,3.4073,3.4059,3.4023,3.4014,3.397,3.3966,3.3912,3.3915,3.3921,3.3921,3.389,3.3893,3.379,3.3776,3.3861,3.386,3.3859,0,3.4247,3.4217,3.4193,3.4174,3.416,3.4129,3.4109,3.4105,3.4084,3.4054,3.4031,3.3996,3.3968,3.391,3.3895,3.3862,3.3864,3.383,3.3859,3.386,3.3863,3.3865,3.3862,3.3824,3.3823,3.3823,3.3822,0,3.4169,3.4167,3.4139,3.411,3.4087,3.4063,3.404,3.4024,3.4016,3.3992,3.3957,3.3935,3.3892,3.3857,3.3823,3.3809,3.3814,3.3813,3.3804,3.3804,3.3809,3.3806,3.3906,3.3815,3.3816,3.3816,3.3817,3.3817,3.4113,3.4088,3.4067,3.4035,3.4018,3.3997,3.3971,3.396,3.393,3.3896,3.3895,3.3856,3.3832,3.3788,3.3772,3.3741,3.3751,3.3737,3.3734,3.3731,3.3728,3.3814,3.3735,3.3735,3.3735,3.3735,3.3735,0,3.4036,3.4023,3.3994,3.3964,3.3939,3.3947,3.3923,3.3901,3.3867,3.3845,3.3818,3.3777,3.3743,3.3726,3.3693,3.3671,3.3672,3.3662,3.3664,3.366,3.3721,3.3733,3.3662,3.3662,3.3662,3.3662,3.3662,3.3662,3.3993,3.395,3.3945,3.3893,3.388,3.3844,3.3829,3.3809,3.3792,3.3746,3.3719,3.3709,3.3688,3.3653,3.3623,3.3618,3.3606,3.3594,3.3591,3.3648,3.3656,3.3663,3.3674,3.3591,3.3591,3.3533,3.3532,3.3532]}]]